Year,Month,Day,Hour,Minute,Value (Times are PST for temperature in C)
2019,09,29,18,18,12.40
2019,09,29,18,19,12.40
2019,09,29,18,20,12.30
2019,09,29,18,21,12.30
2019,09,29,18,22,12.20
2019,09,29,18,23,12.20
2019,09,29,18,24,12.20
2019,09,29,18,25,12.10
2019,09,29,18,26,12.10
2019,09,29,18,27,12.10
2019,09,29,18,28,12.10
2019,09,29,18,29,12.00
2019,09,29,18,30,12.00
2019,09,29,18,31,12.00
2019,09,29,18,32,12.00
2019,09,29,18,33,11.90
2019,09,29,18,34,11.90
2019,09,29,18,35,11.90
2019,09,29,18,36,11.80
2019,09,29,18,37,11.80
2019,09,29,18,38,11.80
2019,09,29,18,39,11.70
2019,09,29,18,40,11.70
2019,09,29,18,41,11.70
2019,09,29,18,42,11.70
2019,09,29,18,43,11.60
2019,09,29,18,44,11.60
2019,09,29,18,45,11.60
2019,09,29,18,46,11.60
2019,09,29,18,47,11.50
2019,09,29,18,48,11.50
2019,09,29,18,49,11.50
2019,09,29,18,50,11.50
2019,09,29,18,51,11.40
2019,09,29,18,52,11.40
2019,09,29,18,53,11.30
2019,09,29,18,54,11.30
2019,09,29,18,55,11.30
2019,09,29,18,56,11.20
2019,09,29,18,57,11.10
2019,09,29,18,58,11.10
2019,09,29,18,59,11.00
2019,09,29,19,00,10.90
2019,09,29,19,01,10.80
2019,09,29,19,02,10.70
2019,09,29,19,03,10.70
2019,09,29,19,04,10.60
2019,09,29,19,05,10.60
2019,09,29,19,06,10.50
2019,09,29,19,07,10.50
2019,09,29,19,08,10.50
2019,09,29,19,09,10.40
2019,09,29,19,10,10.40
2019,09,29,19,11,10.40
2019,09,29,19,12,10.30
2019,09,29,19,13,10.20
2019,09,29,19,14,10.20
2019,09,29,19,15,10.10
2019,09,29,19,16,10.10
2019,09,29,19,17,10.00
2019,09,29,19,18,9.90
2019,09,29,19,19,9.90
2019,09,29,19,20,9.80
2019,09,29,19,21,9.80
2019,09,29,19,22,9.70
2019,09,29,19,23,9.70
2019,09,29,19,24,9.60
2019,09,29,19,25,9.60
2019,09,29,19,26,9.50
2019,09,29,19,27,9.50
2019,09,29,19,28,9.40
2019,09,29,19,29,9.40
2019,09,29,19,30,9.30
2019,09,29,19,31,9.30
2019,09,29,19,32,9.20
2019,09,29,19,33,9.20
2019,09,29,19,34,9.20
2019,09,29,19,35,9.10
2019,09,29,19,36,9.10
2019,09,29,19,37,9.00
2019,09,29,19,38,9.00
2019,09,29,19,39,8.90
2019,09,29,19,40,8.90
2019,09,29,19,41,8.90
2019,09,29,19,42,8.90
2019,09,29,19,43,8.90
2019,09,29,19,44,8.90
2019,09,29,19,45,8.90
2019,09,29,19,46,8.90
2019,09,29,19,47,8.90
2019,09,29,19,48,8.90
2019,09,29,19,49,8.90
2019,09,29,19,50,8.90
2019,09,29,19,51,8.80
2019,09,29,19,52,8.80
2019,09,29,19,53,8.80
2019,09,29,19,54,8.80
2019,09,29,19,55,8.80
2019,09,29,19,56,8.70
2019,09,29,19,57,8.70
2019,09,29,19,58,8.70
2019,09,29,19,59,8.60
2019,09,29,20,00,8.60
2019,09,29,20,01,8.50
2019,09,29,20,02,8.50
2019,09,29,20,03,8.50
2019,09,29,20,04,8.40
2019,09,29,20,05,8.40
2019,09,29,20,06,8.40
2019,09,29,20,07,8.40
2019,09,29,20,08,8.40
2019,09,29,20,09,8.40
2019,09,29,20,10,8.30
2019,09,29,20,11,8.30
2019,09,29,20,12,8.30
2019,09,29,20,13,8.30
2019,09,29,20,14,8.30
2019,09,29,20,15,8.30
2019,09,29,20,16,8.30
2019,09,29,20,17,8.20
2019,09,29,20,18,8.20
2019,09,29,20,19,8.20
2019,09,29,20,20,8.20
2019,09,29,20,21,8.10
2019,09,29,20,22,8.10
2019,09,29,20,23,8.10
2019,09,29,20,24,8.00
2019,09,29,20,25,8.00
2019,09,29,20,26,8.00
2019,09,29,20,27,8.00
2019,09,29,20,28,7.90
2019,09,29,20,29,7.90
2019,09,29,20,30,7.90
2019,09,29,20,31,7.90
2019,09,29,20,32,7.90
2019,09,29,20,33,7.90
2019,09,29,20,34,7.90
2019,09,29,20,35,7.90
2019,09,29,20,36,7.90
2019,09,29,20,37,7.90
2019,09,29,20,38,7.90
2019,09,29,20,39,7.80
2019,09,29,20,40,7.80
2019,09,29,20,41,7.80
2019,09,29,20,42,7.70
2019,09,29,20,43,7.70
2019,09,29,20,44,7.70
2019,09,29,20,45,7.60
2019,09,29,20,46,7.60
2019,09,29,20,47,7.60
2019,09,29,20,48,7.50
2019,09,29,20,49,7.50
2019,09,29,20,50,7.40
2019,09,29,20,51,7.40
2019,09,29,20,52,7.40
2019,09,29,20,53,7.30
2019,09,29,20,54,7.30
2019,09,29,20,55,7.30
2019,09,29,20,56,7.20
2019,09,29,20,57,7.20
2019,09,29,20,58,7.20
2019,09,29,20,59,7.10
2019,09,29,21,00,7.10
2019,09,29,21,01,7.10
2019,09,29,21,02,7.00
2019,09,29,21,03,7.00
2019,09,29,21,04,7.00
2019,09,29,21,05,6.90
2019,09,29,21,06,6.90
2019,09,29,21,07,6.90
2019,09,29,21,08,6.80
2019,09,29,21,09,6.80
2019,09,29,21,10,6.80
2019,09,29,21,11,6.70
2019,09,29,21,12,6.70
2019,09,29,21,13,6.70
2019,09,29,21,14,6.60
2019,09,29,21,15,6.60
2019,09,29,21,16,6.60
2019,09,29,21,17,6.60
2019,09,29,21,18,6.50
2019,09,29,21,19,6.50
2019,09,29,21,20,6.40
2019,09,29,21,21,6.40
2019,09,29,21,22,6.40
2019,09,29,21,23,6.30
2019,09,29,21,24,6.30
2019,09,29,21,25,6.30
2019,09,29,21,26,6.30
2019,09,29,21,27,6.30
2019,09,29,21,28,6.30
2019,09,29,21,29,6.30
2019,09,29,21,30,6.20
2019,09,29,21,31,6.20
2019,09,29,21,32,6.20
2019,09,29,21,33,6.20
2019,09,29,21,34,6.20
2019,09,29,21,35,6.20
2019,09,29,21,36,6.20
2019,09,29,21,37,6.10
2019,09,29,21,38,6.10
2019,09,29,21,39,6.10
2019,09,29,21,40,6.10
2019,09,29,21,41,6.10
2019,09,29,21,42,6.00
2019,09,29,21,43,6.00
2019,09,29,21,44,6.00
2019,09,29,21,45,5.90
2019,09,29,21,46,5.90
2019,09,29,21,47,5.90
2019,09,29,21,48,5.90
2019,09,29,21,49,5.80
2019,09,29,21,50,5.80
2019,09,29,21,51,5.80
2019,09,29,21,52,5.80
2019,09,29,21,53,5.80
2019,09,29,21,54,5.80
2019,09,29,21,55,5.70
2019,09,29,21,56,5.70
2019,09,29,21,57,5.70
2019,09,29,21,58,5.70
2019,09,29,21,59,5.70
2019,09,29,22,00,5.70
2019,09,29,22,01,5.70
2019,09,29,22,02,5.70
2019,09,29,22,03,5.60
2019,09,29,22,04,5.60
2019,09,29,22,05,5.60
2019,09,29,22,06,5.60
2019,09,29,22,07,5.60
2019,09,29,22,08,5.60
2019,09,29,22,09,5.60
2019,09,29,22,10,5.70
2019,09,29,22,11,5.70
2019,09,29,22,12,5.70
2019,09,29,22,13,5.70
2019,09,29,22,14,5.70
2019,09,29,22,15,5.70
2019,09,29,22,16,5.70
2019,09,29,22,17,5.70
2019,09,29,22,18,5.70
2019,09,29,22,19,5.70
2019,09,29,22,20,5.70
2019,09,29,22,21,5.70
2019,09,29,22,22,5.70
2019,09,29,22,23,5.70
2019,09,29,22,24,5.70
2019,09,29,22,25,5.70
2019,09,29,22,26,5.70
2019,09,29,22,27,5.70
2019,09,29,22,28,5.70
2019,09,29,22,29,5.70
2019,09,29,22,30,5.70
2019,09,29,22,31,5.70
2019,09,29,22,32,5.70
2019,09,29,22,33,5.70
2019,09,29,22,34,5.70
2019,09,29,22,35,5.70
2019,09,29,22,36,5.70
2019,09,29,22,37,5.70
2019,09,29,22,38,5.70
2019,09,29,22,39,5.70
2019,09,29,22,40,5.70
2019,09,29,22,41,5.60
2019,09,29,22,42,5.60
2019,09,29,22,43,5.60
2019,09,29,22,44,5.60
2019,09,29,22,45,5.60
2019,09,29,22,46,5.60
2019,09,29,22,47,5.60
2019,09,29,22,48,5.60
2019,09,29,22,49,5.60
2019,09,29,22,50,5.60
2019,09,29,22,51,5.60
2019,09,29,22,52,5.60
2019,09,29,22,53,5.60
2019,09,29,22,54,5.60
2019,09,29,22,55,5.60
2019,09,29,22,56,5.60
2019,09,29,22,57,5.50
2019,09,29,22,58,5.50
2019,09,29,22,59,5.50
2019,09,29,23,00,5.50
2019,09,29,23,01,5.50
2019,09,29,23,02,5.40
2019,09,29,23,03,5.40
2019,09,29,23,04,5.40
2019,09,29,23,05,5.40
2019,09,29,23,06,5.40
2019,09,29,23,07,5.30
2019,09,29,23,08,5.30
2019,09,29,23,09,5.30
2019,09,29,23,10,5.30
2019,09,29,23,11,5.30
2019,09,29,23,12,5.20
2019,09,29,23,13,5.20
2019,09,29,23,14,5.20
2019,09,29,23,15,5.20
2019,09,29,23,16,5.20
2019,09,29,23,17,5.10
2019,09,29,23,18,5.10
2019,09,29,23,19,5.10
2019,09,29,23,20,5.10
2019,09,29,23,21,5.10
2019,09,29,23,22,5.10
2019,09,29,23,23,5.10
2019,09,29,23,24,5.10
2019,09,29,23,25,5.10
2019,09,29,23,26,5.10
2019,09,29,23,27,5.10
2019,09,29,23,28,5.10
2019,09,29,23,29,5.10
2019,09,29,23,30,5.00
2019,09,29,23,31,5.00
2019,09,29,23,32,5.00
2019,09,29,23,33,5.00
2019,09,29,23,34,4.90
2019,09,29,23,35,4.90
2019,09,29,23,36,4.90
2019,09,29,23,37,4.90
2019,09,29,23,38,4.90
2019,09,29,23,39,4.90
2019,09,29,23,40,5.00
2019,09,29,23,41,5.00
2019,09,29,23,42,5.00
2019,09,29,23,43,5.00
2019,09,29,23,44,5.00
2019,09,29,23,45,5.00
2019,09,29,23,46,4.90
2019,09,29,23,47,4.90
2019,09,29,23,48,4.90
2019,09,29,23,49,4.90
2019,09,29,23,50,4.90
2019,09,29,23,51,4.90
2019,09,29,23,52,4.90
2019,09,29,23,53,4.90
2019,09,29,23,54,4.90
2019,09,29,23,55,4.90
2019,09,29,23,56,4.90
2019,09,29,23,57,4.90
2019,09,29,23,58,4.90
2019,09,29,23,59,4.80
